USA 342

Last updated on Tue Nov 19 2024 00:02:44 GMT+0000 (Coordinated Universal Time)

1 55263U 23008A 24323.23730182 .00000142 00000+0 00000+0 0 9999 2 55263 0.0095 17.7737 0000177 89.4926 59.7812 1.00271634 6756
UTC large
Height (km)
Speed (km/s)
/
Latitude / Longitude
Inclination (degrees)
Orbital Period (minutes)
Azimuth
Elevation
Range (km)
Doppler Factor

Next 0 passes for location: London (51.5072 / 0.1276)

Sorry there are no passes over London.